Regional Weather Roundup
Issued by NWS

Home | Current Version | Previous Version | Graphics & Text | Print | Product List | Glossary On
Versions: 1 2 3 4 5 6 7 8 9 10 11 12 13 14 15 16 17 18 19 20 21 22 23 24 25 26 27 28 29 30 31 32 33 34 35 36 37 38 39 40 41 42 43 44 45 46 47 48 49 50
000
ASUS43 KIND 040159
RWRIN

WEATHER ROUNDUP FOR INDIANA
NATIONAL WEATHER SERVICE INDIANAPOLIS IN
1000 PM EDT TUE MAY 03 2016

NOTE: "FAIR" INDICATES FEW OR NO CLOUDS BELOW 12,000 FEET WITH NO
SIGNIFICANT WEATHER AND/OR OBSTRUCTIONS TO VISIBILITY.

* - STATION DOES NOT REPORT WEATHER SUCH AS PRECIPITATION OR FOG.

+ - STATION NOT QUALITY CONTROLLED BY THE NATIONAL WEATHER SERVICE.
    USE DATA WITH CAUTION...ESPECIALLY DEWPOINT AND RELATIVE
    HUMIDITY OBSERVATIONS.

INZ001>003-010>013-019-020-040300-
NORTHWEST INDIANA

CITY           SKY/WX    TMP DP  RH WIND       PRES   REMARKS
RENSSELAER +   CLOUDY    57  43  58 SW6       29.81S

$$

LMZ046-743>745-040300-
SOUTHERN LAKE MICHIGAN

STATION/POSITION TIME  TEMP    WIND        PRES    WAVE
                       AIR SEA DIR/SP/G            HT
                 (UTC) (F)     (DEG/KT/KT) (MB)    (FT)
BURNS HARBOR     0100   63     230/  8/ 13 1008.8F
MICHIGAN CITY    0100   62     170/  8/  9   N/A

$$

INZ004-005-014>016-021>024-040300-
NORTH CENTRAL INDIANA

CITY           SKY/WX    TMP DP  RH WIND       PRES   REMARKS
GOSHEN         CLOUDY    56  42  59 S6        29.79F
SOUTH BEND     CLOUDY    58  41  53 S7        29.78F

$$

INZ006>009-017-018-025>027-040300-
NORTHEAST INDIANA

CITY           SKY/WX    TMP DP  RH WIND       PRES   REMARKS
ANGOLA *+      CLOUDY    52  45  76 CALM      29.79F
FORT WAYNE     PTCLDY    51  43  74 SW9       29.82F

$$

INZ028-029-035-036-043>045-051>053-040300-
WEST CENTRAL INDIANA

CITY           SKY/WX    TMP DP  RH WIND       PRES   REMARKS
CRAWFORDSVL +  CLOUDY    54  46  73 SW6       29.85F
GREENCASTLE +  CLOUDY    54  46  76 CALM      29.87S
LAFAYETTE      PTCLDY    55  44  66 CALM      29.83S
TERRE HAUTE    CLOUDY    58  44  60 W6        29.87S

$$

INZ030>032-037>040-046>048-054>057-064-065-040300-
CENTRAL INDIANA

CITY           SKY/WX    TMP DP  RH WIND       PRES   REMARKS
COLUMBUS       CLEAR     50  50 100 CALM      29.88S
INDIANAPOLIS   NOT AVBL
-EAGLE CREEK   PTCLDY    52  45  77 S3        29.85S
KOKOMO *+      PTCLDY    52  43  71 S8        29.82F
SHELBYVILLE    CLEAR     56  46  69 S6        29.86S

$$

INZ033-034-041-042-049-050-058-059-040300-
EAST CENTRAL INDIANA

CITY           SKY/WX    TMP DP  RH WIND       PRES   REMARKS
MUNCIE         CLEAR     53  44  71 S3        29.85S

$$

INZ060-061-067>069-081>083-085>088-040300-
SOUTHWEST INDIANA

CITY           SKY/WX    TMP DP  RH WIND       PRES   REMARKS
EVANSVILLE     PTCLDY    56  43  61 W7        29.92S
HUNTINGBURG *+ CLOUDY    54  45  71 CALM      29.91S

$$

INZ062-063-066-070>080-084-089>092-040300-
SOUTH CENTRAL AND SOUTHEAST INDIANA

CITY           SKY/WX    TMP DP  RH WIND       PRES   REMARKS
BLOOMINGTON    MOCLDY    54  45  71 CALM      29.88S
MADISON *+     PTCLDY    52  48  87 SW3       29.91R
SEYMOUR +      CLEAR     54  50  87 CALM      29.89S

$$





USA.gov is the U.S. government's official web portal to all federal, state and local government web resources and services.